DT_LEITURA;HR_LEITURA;MED-PressaoAtm[hPa];VAL-TempExt[oC];VAL-UmidExt[%UR];VAL-TempInt[oC];VAL-UmidInt[%UR];Dir-Vento[grau];Vel-Vento[m/s];Precipitação[mm/h]
03/09/2026;00:00:00;1012,5;-36,6;0;28,8;75;335;0,4;0,0
03/09/2026;00:05:00;1012,5;-36,7;0;28,7;76;348;0,5;0,0
03/09/2026;00:10:00;1012,5;-36,7;0;28,7;76;346;0,6;0,0
03/09/2026;00:15:00;1012,4;-36,7;0;28,6;76;350;0,5;0,0
03/09/2026;00:20:00;1012,4;-36,8;0;28,5;76;339;0,5;0,0
03/09/2026;00:25:00;1012,3;-36,8;0;28,4;76;316;0,7;0,0
03/09/2026;00:30:00;1012,3;-36,8;0;28,4;76;351;0,5;0,0
03/09/2026;00:35:00;1012,2;-36,8;0;28,3;76;354;0,5;0,0
03/09/2026;00:40:00;1012,2;-36,8;0;28,3;76;2;0,5;0,0
03/09/2026;00:45:00;1012,1;-36,8;0;28,2;76;24;0,4;0,0
03/09/2026;00:50:00;1012,1;-36,8;0;28,1;76;327;0,4;0,0
03/09/2026;00:55:00;1012,0;-36,9;0;28,1;76;356;0,5;0,0
03/09/2026;01:00:00;1012,0;-36,8;0;28,1;76;86;0,3;0,0
03/09/2026;01:05:00;1011,9;-36,9;0;28,0;76;347;0,4;0,0
03/09/2026;01:10:00;1011,8;-36,8;0;28,0;76;352;0,6;0,0
03/09/2026;01:15:00;1011,7;-36,8;0;28,0;77;308;0,5;0,0
03/09/2026;01:20:00;1011,7;-36,9;0;27,9;77;360;0,5;0,0
03/09/2026;01:25:00;1011,6;-36,9;0;27,9;77;327;0,5;0,0
03/09/2026;01:30:00;1011,5;-36,9;0;27,8;77;345;0,6;0,0
03/09/2026;01:35:00;1011,4;-36,9;0;27,7;77;352;0,7;0,0
03/09/2026;01:40:00;1011,4;-36,9;0;27,7;78;339;0,5;0,0
03/09/2026;01:45:00;1011,3;-36,9;0;27,6;78;19;0,4;0,0
03/09/2026;01:50:00;1011,3;-36,9;0;27,6;78;16;0,5;0,0
03/09/2026;01:55:00;1011,2;-37,0;0;27,5;78;350;0,7;0,0
03/09/2026;02:00:00;1011,2;-37,0;0;27,5;79;357;0,6;0,0
03/09/2026;02:05:00;1011,2;-37,0;0;27,4;79;328;0,5;0,0
03/09/2026;02:10:00;1011,1;-37,0;0;27,4;79;360;0,6;0,0
03/09/2026;02:15:00;1011,1;-37,0;0;27,3;79;359;0,6;0,0
03/09/2026;02:20:00;1011,1;-37,0;0;27,3;79;330;0,5;0,0
03/09/2026;02:25:00;1011,0;-37,0;0;27,3;80;25;0,4;0,0
03/09/2026;02:30:00;1011,0;-37,0;0;27,2;80;354;0,5;0,0
03/09/2026;02:35:00;1011,0;-37,1;0;27,2;80;2;0,6;0,0
03/09/2026;02:40:00;1011,0;-37,1;0;27,2;80;12;0,5;0,0
03/09/2026;02:45:00;1011,0;-37,1;0;27,2;80;354;0,3;0,0
03/09/2026;02:50:00;1011,0;-37,1;0;27,2;80;33;0,5;0,0
03/09/2026;02:55:00;1011,0;-37,1;0;27,2;80;350;0,4;0,0
03/09/2026;03:00:00;1010,9;-37,1;0;27,2;80;24;0,3;0,0
03/09/2026;03:05:00;1010,8;-37,1;0;27,2;80;5;0,5;0,0
03/09/2026;03:10:00;1010,8;-37,1;0;27,2;80;356;0,4;0,0
03/09/2026;03:15:00;1010,7;-37,1;0;27,2;80;42;0,5;0,0
03/09/2026;03:20:00;1010,7;-37,1;0;27,2;80;15;0,5;0,0
03/09/2026;03:25:00;1010,7;-37,1;0;27,1;80;40;0,5;0,0
03/09/2026;03:30:00;1010,7;-37,1;0;27,1;80;5;0,4;0,0
03/09/2026;03:35:00;1010,7;-37,1;0;27,0;80;101;0,4;0,0
03/09/2026;03:40:00;1010,7;-37,1;0;27,0;80;24;0,3;0,0
03/09/2026;03:45:00;1010,7;-37,1;0;27,0;80;120;0,3;0,0
03/09/2026;03:50:00;1010,8;-37,1;0;27,0;80;108;0,3;0,0
03/09/2026;03:55:00;1010,7;-37,1;0;26,9;80;181;0,5;0,0
03/09/2026;04:00:00;1010,8;-37,1;0;26,9;80;225;0,6;0,0
03/09/2026;04:05:00;1010,8;-37,1;0;26,9;81;246;0,5;0,0
03/09/2026;04:10:00;1010,9;-37,1;0;26,8;81;348;0,6;0,0
03/09/2026;04:15:00;1010,8;-37,1;0;26,8;81;21;0,5;0,0
03/09/2026;04:20:00;1010,8;-37,1;0;26,7;81;311;0,4;0,0
03/09/2026;04:25:00;1010,9;-37,1;0;26,7;81;181;0,3;0,0
03/09/2026;04:30:00;1011,0;-37,2;0;26,6;81;140;0,6;0,0
03/09/2026;04:35:00;1011,0;-37,2;0;26,6;82;153;0,6;0,0
03/09/2026;04:40:00;1011,0;-37,2;0;26,6;82;168;0,6;0,0
03/09/2026;04:45:00;1011,1;-37,2;0;26,6;82;136;0,8;0,0
03/09/2026;04:50:00;1011,0;-37,2;0;26,5;82;140;0,9;0,0
03/09/2026;04:55:00;1011,0;-37,2;0;26,5;82;140;0,6;0,0
03/09/2026;05:00:00;1011,0;-37,2;0;26,4;82;145;0,6;0,0
03/09/2026;05:05:00;1011,0;-37,2;0;26,4;82;137;0,5;0,0
03/09/2026;05:10:00;1011,0;-37,2;0;26,3;83;142;0,5;0,0
03/09/2026;05:15:00;1011,0;-37,2;0;26,3;83;141;0,7;0,0
03/09/2026;05:20:00;1011,0;-37,2;0;26,3;83;129;0,7;0,0
03/09/2026;05:25:00;1011,1;-37,2;0;26,2;83;150;0,6;0,0
03/09/2026;05:30:00;1011,1;-37,2;0;26,2;83;138;0,7;0,0
03/09/2026;05:35:00;1011,2;-37,2;0;26,2;83;147;0,7;0,0
03/09/2026;05:40:00;1011,2;-37,2;0;26,2;83;148;0,5;0,0
03/09/2026;05:45:00;1011,3;-37,2;0;26,2;84;148;0,5;0,0
03/09/2026;05:50:00;1011,3;-37,2;0;26,2;84;147;0,2;0,0
03/09/2026;05:55:00;1011,3;-37,2;0;26,2;84;147;0,5;0,0
03/09/2026;06:00:00;1011,3;-37,1;0;26,2;84;180;0,4;0,0
03/09/2026;06:05:00;1011,3;-37,1;0;26,2;84;159;0,3;0,0
03/09/2026;06:10:00;1011,3;-37,1;0;26,2;84;126;0,4;0,0
03/09/2026;06:15:00;1011,3;-37,1;0;26,2;84;136;0,2;0,0
03/09/2026;06:20:00;1011,3;-37,1;0;26,2;84;139;0,3;0,0
03/09/2026;06:25:00;1011,3;-37,1;0;26,2;84;230;0,4;0,0
03/09/2026;06:30:00;1011,3;-37,1;0;26,2;84;275;0,4;0,0
03/09/2026;06:35:00;1011,4;-37,1;0;26,2;84;307;0,4;0,0
03/09/2026;06:40:00;1011,4;-37,1;0;26,2;84;360;0,3;0,0
03/09/2026;06:45:00;1011,5;-37,1;0;26,2;84;344;0,5;0,0
03/09/2026;06:50:00;1011,6;-37,1;0;26,2;84;290;0,5;0,0
03/09/2026;06:55:00;1011,6;-37,1;0;26,2;84;8;0,3;0,0
03/09/2026;07:00:00;1011,7;-37,1;0;26,3;84;345;0,4;0,0
03/09/2026;07:05:00;1011,8;-37,1;0;26,3;84;7;0,6;0,0
03/09/2026;07:10:00;1011,9;-37,1;0;26,4;84;305;0,5;0,0
03/09/2026;07:15:00;1012,0;-37,1;0;26,5;84;266;0,6;0,0
03/09/2026;07:20:00;1012,0;-37,1;0;26,6;84;325;0,5;0,0
03/09/2026;07:25:00;1012,1;-37,1;0;26,7;84;343;0,6;0,0
03/09/2026;07:30:00;1012,1;-37,1;0;26,8;84;293;0,7;0,0
03/09/2026;07:35:00;1012,1;-37,1;0;26,9;84;272;0,6;0,0
03/09/2026;07:40:00;1012,2;-37,1;0;27,0;83;282;0,6;0,0
03/09/2026;07:45:00;1012,3;-37,1;0;27,2;83;297;0,5;0,0
03/09/2026;07:50:00;1012,3;-37,1;0;27,3;82;287;0,7;0,0
03/09/2026;07:55:00;1012,4;-37,0;0;27,4;82;234;0,5;0,0
03/09/2026;08:00:00;1012,4;-37,0;0;27,6;81;278;0,6;0,0
03/09/2026;08:05:00;1012,6;-37,0;0;27,7;81;90;0,4;0,0
03/09/2026;08:10:00;1012,6;-36,9;0;27,8;80;314;0,7;0,0
03/09/2026;08:15:00;1012,7;-36,9;0;28,0;80;319;0,6;0,0
03/09/2026;08:20:00;1012,8;-36,9;0;28,2;79;313;0,7;0,0
03/09/2026;08:25:00;1012,9;-36,8;0;28,4;78;303;0,6;0,0
03/09/2026;08:30:00;1013,1;-36,8;0;28,5;77;2;0,9;0,0
03/09/2026;08:35:00;1013,1;-36,7;0;28,6;76;327;0,7;0,0
03/09/2026;08:40:00;1013,2;-36,6;0;28,8;76;290;0,6;0,0
03/09/2026;08:45:00;1013,2;-36,5;0;29,0;75;332;0,7;0,0
03/09/2026;08:50:00;1013,3;-36,3;0;29,1;74;301;0,7;0,0
03/09/2026;08:55:00;1013,3;-36,1;0;29,4;73;243;0,7;0,0
03/09/2026;09:00:00;1013,3;-35,8;0;29,5;72;265;0,8;0,0
03/09/2026;09:05:00;1013,3;-35,3;0;29,7;70;14;0,8;0,0
03/09/2026;09:10:00;1013,3;-34,9;0;29,9;69;247;1,0;0,0
03/09/2026;09:15:00;1013,3;-34,3;0;30,1;69;269;1,0;0,0
03/09/2026;09:20:00;1013,4;-33,7;0;30,4;67;320;1,0;0,0
03/09/2026;09:25:00;1013,5;-33,1;0;30,9;65;284;0,7;0,0
03/09/2026;09:30:00;1013,5;-33,4;0;31,5;63;351;0,6;0,0
03/09/2026;09:35:00;1013,5;-35,0;0;32,1;60;270;0,9;0,0
03/09/2026;09:40:00;1013,6;-36,9;0;32,7;58;159;1,2;0,0
03/09/2026;09:45:00;1013,6;-38,1;0;33,2;56;336;0,8;0,0
03/09/2026;09:50:00;1013,6;-38,5;0;33,3;54;275;0,7;0,0
03/09/2026;09:55:00;1013,6;-38,6;0;33,2;55;235;0,7;0,0
03/09/2026;10:00:00;1013,6;-38,7;0;33,4;54;307;0,8;0,0
03/09/2026;10:05:00;1013,6;-38,8;0;33,9;52;191;1,0;0,0
03/09/2026;10:10:00;1013,7;-38,9;0;34,3;52;197;0,6;0,0
03/09/2026;10:15:00;1013,7;-38,9;0;34,5;51;147;1,0;0,0
03/09/2026;10:20:00;1013,6;-39,0;0;34,6;51;143;1,8;0,0
03/09/2026;10:25:00;1013,5;-39,0;0;34,7;51;145;1,5;0,0
03/09/2026;10:30:00;1013,5;-39,1;0;35,0;50;149;1,9;0,0
03/09/2026;10:35:00;1013,4;-39,1;0;35,2;49;141;1,9;0,0
03/09/2026;10:40:00;1013,4;-39,1;0;35,4;49;194;1,0;0,0
03/09/2026;10:45:00;1013,4;-39,1;0;35,3;49;131;1,1;0,0
03/09/2026;10:50:00;1013,4;-39,1;0;35,5;48;134;1,5;0,0
03/09/2026;10:55:00;1013,4;-39,1;0;35,9;48;141;1,6;0,0
03/09/2026;11:00:00;1013,4;-39,1;0;36,3;48;137;1,3;0,0
03/09/2026;11:05:00;1013,4;-39,1;0;36,3;48;131;1,6;0,0
03/09/2026;11:10:00;1013,4;-39,1;0;36,4;49;138;1,7;0,0
03/09/2026;11:15:00;1013,3;-39,1;0;36,5;48;127;1,6;0,0
03/09/2026;11:20:00;1013,3;-39,1;0;36,5;47;129;2,0;0,0
03/09/2026;11:25:00;1013,3;-39,1;0;36,6;47;131;2,4;0,0
03/09/2026;11:30:00;1013,3;-39,1;0;36,6;48;133;2,4;0,0
03/09/2026;11:35:00;1013,2;-39,1;0;36,5;48;131;2,1;0,0
03/09/2026;11:40:00;1013,2;-39,1;0;36,2;48;129;2,2;0,0
03/09/2026;11:45:00;1013,1;-39,1;0;36,0;49;122;2,3;0,0
03/09/2026;11:50:00;1013,0;-39,1;0;35,9;49;132;2,1;0,0
03/09/2026;11:55:00;1013,0;-39,1;0;36,0;49;131;1,8;0,0
03/09/2026;12:00:00;1012,9;-39,1;0;36,2;49;132;1,9;0,0
03/09/2026;12:05:00;1012,8;-39,1;0;36,5;48;121;1,7;0,0
03/09/2026;12:10:00;1012,8;-39,1;0;36,7;47;133;1,8;0,0
03/09/2026;12:15:00;1012,7;-39,1;0;36,8;47;135;2,0;0,0
03/09/2026;12:20:00;1012,7;-39,1;0;36,9;47;131;1,6;0,0
03/09/2026;12:25:00;1012,6;-39,1;0;37,0;47;132;1,8;0,0
03/09/2026;12:30:00;1012,6;-39,1;0;37,1;47;125;2,0;0,0
03/09/2026;12:35:00;1012,5;-39,1;0;37,1;46;122;1,9;0,0
03/09/2026;12:40:00;1012,5;-39,1;0;37,1;47;140;1,8;0,0
03/09/2026;12:45:00;1012,4;-39,1;0;37,2;46;127;2,0;0,0
03/09/2026;12:50:00;1012,3;-39,1;0;37,3;46;125;2,1;0,0
03/09/2026;12:55:00;1012,2;-39,1;0;37,4;46;127;2,2;0,0
03/09/2026;13:00:00;1012,2;-39,1;0;37,4;46;124;1,9;0,0
03/09/2026;13:05:00;1012,1;-39,1;0;37,5;45;134;2,3;0,0
03/09/2026;13:10:00;1012,0;-39,1;0;37,7;45;128;1,8;0,0
03/09/2026;13:15:00;1012,0;-39,1;0;37,9;45;128;1,9;0,0
03/09/2026;13:20:00;1011,9;-39,1;0;38,1;44;128;2,1;0,0
03/09/2026;13:25:00;1011,8;-39,1;0;38,2;44;129;2,4;0,0
03/09/2026;13:30:00;1011,6;-39,1;0;38,2;43;134;2,2;0,0
03/09/2026;13:35:00;1011,5;-39,1;0;38,1;43;125;1,8;0,0
03/09/2026;13:40:00;1011,4;-39,1;0;38,1;43;118;2,2;0,0
03/09/2026;13:45:00;1011,3;-39,1;0;38,1;43;122;2,5;0,0
03/09/2026;13:50:00;1011,2;-39,1;0;38,2;43;124;1,8;0,0
03/09/2026;13:55:00;1011,1;-39,1;0;38,4;43;125;1,8;0,0
03/09/2026;14:00:00;1011,0;-39,1;0;38,5;42;132;1,8;0,0
03/09/2026;14:05:00;1011,0;-39,1;0;38,8;42;128;1,8;0,0
03/09/2026;14:10:00;1010,9;-39,1;0;39,0;42;132;1,9;0,0
03/09/2026;14:15:00;1010,8;-39,1;0;39,3;41;134;1,9;0,0
03/09/2026;14:20:00;1010,7;-39,1;0;39,4;40;136;1,7;0,0
03/09/2026;14:25:00;1010,7;-39,1;0;39,6;39;137;1,8;0,0
03/09/2026;14:30:00;1010,6;-39,1;0;39,7;40;136;2,1;0,0
03/09/2026;14:35:00;1010,6;-39,1;0;39,7;39;129;1,9;0,0
03/09/2026;14:40:00;1010,5;-39,1;0;39,7;39;133;2,1;0,0
03/09/2026;14:45:00;1010,4;-39,2;0;39,8;39;134;1,9;0,0
03/09/2026;14:50:00;1010,4;-39,2;0;39,9;38;129;2,0;0,0
03/09/2026;14:55:00;1010,4;-39,2;0;40,0;37;135;2,1;0,0
03/09/2026;15:00:00;1010,3;-39,2;0;40,0;38;132;2,0;0,0
03/09/2026;15:05:00;1010,3;-39,2;0;40,1;37;131;2,0;0,0
03/09/2026;15:10:00;1010,3;-39,2;0;40,1;37;136;2,1;0,0
03/09/2026;15:15:00;1010,3;-39,2;0;40,0;37;131;1,7;0,0
03/09/2026;15:20:00;1010,3;-39,2;0;40,1;35;126;2,1;0,0
03/09/2026;15:25:00;1010,3;-39,2;0;40,1;34;133;2,0;0,0
03/09/2026;15:30:00;1010,3;-39,2;0;40,1;36;133;2,3;0,0
03/09/2026;15:35:00;1010,3;-39,2;0;40,0;37;128;1,8;0,0
03/09/2026;15:40:00;1010,2;-39,2;0;39,9;38;129;2,0;0,0
03/09/2026;15:45:00;1010,2;-39,2;0;39,7;39;130;2,1;0,0
03/09/2026;15:50:00;1010,2;-39,2;0;39,6;39;133;2,2;0,0
03/09/2026;15:55:00;1010,2;-39,2;0;39,4;38;139;1,7;0,0
03/09/2026;16:00:00;1010,2;-39,2;0;39,2;38;138;1,9;0,0
03/09/2026;16:05:00;1010,3;-39,2;0;39,1;38;137;1,9;0,0
03/09/2026;16:10:00;1010,3;-39,2;0;38,8;39;133;1,9;0,0
03/09/2026;16:15:00;1010,3;-39,2;0;38,2;41;122;1,8;0,0
03/09/2026;16:20:00;1010,3;-39,2;0;37,5;42;128;1,9;0,0
03/09/2026;16:25:00;1010,3;-39,2;0;37,0;44;136;1,5;0,0
03/09/2026;16:30:00;1010,3;-39,2;0;36,6;45;124;1,8;0,0
03/09/2026;16:35:00;1010,3;-39,2;0;36,2;45;127;1,3;0,0
03/09/2026;16:40:00;1010,2;-39,1;0;35,9;46;123;1,7;0,0
03/09/2026;16:45:00;1010,3;-39,1;0;35,6;48;128;1,7;0,0
03/09/2026;16:50:00;1010,3;-39,1;0;35,4;49;130;1,8;0,0
03/09/2026;16:55:00;1010,2;-39,1;0;35,1;49;119;2,0;0,0
03/09/2026;17:00:00;1010,3;-39,1;0;34,8;50;119;2,0;0,0
03/09/2026;17:05:00;1010,3;-39,1;0;34,6;52;137;1,5;0,0
03/09/2026;17:10:00;1010,3;-39,1;0;34,3;53;155;1,2;0,0
03/09/2026;17:15:00;1010,3;-39,1;0;34,2;53;138;1,2;0,0
03/09/2026;17:20:00;1010,3;-39,0;0;34,1;52;129;1,3;0,0
03/09/2026;17:25:00;1010,3;-39,0;0;33,9;52;131;1,3;0,0
03/09/2026;17:30:00;1010,4;-39,0;0;33,8;53;136;1,6;0,0
03/09/2026;17:35:00;1010,4;-39,0;0;33,7;52;127;1,4;0,0
03/09/2026;17:40:00;1010,3;-39,0;0;33,6;52;130;1,5;0,0
03/09/2026;17:45:00;1010,3;-39,0;0;33,5;52;135;1,6;0,0
03/09/2026;17:50:00;1010,4;-39,0;0;33,3;51;128;1,5;0,0
03/09/2026;17:55:00;1010,4;-38,9;0;33,2;51;125;1,8;0,0
03/09/2026;18:00:00;1010,4;-38,9;0;33,2;52;136;1,6;0,0
03/09/2026;18:05:00;1010,5;-38,9;0;33,0;53;128;1,5;0,0
03/09/2026;18:10:00;1010,5;-38,9;0;33,0;54;138;1,2;0,0
03/09/2026;18:15:00;1010,5;-38,9;0;32,8;54;142;1,4;0,0
03/09/2026;18:20:00;1010,6;-38,8;0;32,7;55;134;1,2;0,0
03/09/2026;18:25:00;1010,6;-38,8;0;32,6;55;140;1,2;0,0
03/09/2026;18:30:00;1010,6;-38,8;0;32,5;56;135;1,3;0,0
03/09/2026;18:35:00;1010,6;-38,8;0;32,4;56;130;1,5;0,0
03/09/2026;18:40:00;1010,6;-38,7;0;32,3;57;131;1,5;0,0
03/09/2026;18:45:00;1010,7;-38,7;0;32,1;57;142;1,5;0,0
03/09/2026;18:50:00;1010,7;-38,6;0;32,0;58;146;1,5;0,0
03/09/2026;18:55:00;1010,6;-38,6;0;31,9;59;135;1,6;0,0
03/09/2026;19:00:00;1010,7;-38,5;0;31,8;60;132;1,3;0,0
03/09/2026;19:05:00;1010,8;-38,4;0;31,8;61;143;1,6;0,0
03/09/2026;19:10:00;1010,8;-38,3;0;31,7;61;143;1,5;0,0
03/09/2026;19:15:00;1010,9;-38,3;0;31,6;61;146;1,5;0,0
03/09/2026;19:20:00;1011,0;-38,2;0;31,5;61;131;1,3;0,0
03/09/2026;19:25:00;1011,0;-38,1;0;31,5;62;137;1,2;0,0
03/09/2026;19:30:00;1011,1;-38,0;0;31,4;63;133;1,4;0,0
03/09/2026;19:35:00;1011,1;-37,9;0;31,4;65;136;1,5;0,0
03/09/2026;19:40:00;1011,2;-37,8;0;31,3;66;122;1,8;0,0
03/09/2026;19:45:00;1011,3;-37,8;0;31,3;66;118;1,5;0,0
03/09/2026;19:50:00;1011,3;-37,6;0;31,2;68;130;1,8;0,0
03/09/2026;19:55:00;1011,4;-37,5;0;31,1;68;137;1,8;0,0
03/09/2026;20:00:00;1011,4;-37,4;0;31,0;69;132;1,6;0,0
03/09/2026;20:05:00;1011,4;-37,2;0;30,9;69;129;1,8;0,0
03/09/2026;20:10:00;1011,5;-37,1;0;30,8;69;136;1,8;0,0
03/09/2026;20:15:00;1011,5;-37,0;0;30,7;69;124;2,1;0,0
03/09/2026;20:20:00;1011,5;-36,8;0;30,6;70;128;2,2;0,0
03/09/2026;20:25:00;1011,6;-36,6;0;30,5;70;125;1,3;0,0
03/09/2026;20:30:00;1011,7;-36,5;0;30,4;70;121;1,9;0,0
03/09/2026;20:35:00;1011,8;-36,4;0;30,4;70;131;1,6;0,0
03/09/2026;20:40:00;1011,9;-36,4;0;30,3;70;131;1,6;0,0
03/09/2026;20:45:00;1011,9;-36,3;0;30,2;70;136;1,5;0,0
03/09/2026;20:50:00;1011,9;-36,3;0;30,1;70;130;1,5;0,0
03/09/2026;20:55:00;1012,0;-36,2;0;30,1;70;136;1,7;0,0
03/09/2026;21:00:00;1012,0;-36,2;0;30,0;70;135;1,8;0,0
03/09/2026;21:05:00;1012,0;-36,2;0;29,9;70;147;1,7;0,0
03/09/2026;21:10:00;1012,0;-36,2;0;29,8;70;135;1,3;0,0
03/09/2026;21:15:00;1012,1;-36,2;0;29,8;70;150;1,1;0,0
03/09/2026;21:20:00;1012,2;-36,2;0;29,7;70;146;1,5;0,0
03/09/2026;21:25:00;1012,2;-36,2;0;29,7;70;134;1,5;0,0
03/09/2026;21:30:00;1012,2;-36,2;0;29,7;70;150;1,3;0,0
03/09/2026;21:35:00;1012,3;-36,2;0;29,6;70;142;1,5;0,0
03/09/2026;21:40:00;1012,3;-36,2;0;29,6;70;149;1,6;0,0
03/09/2026;21:45:00;1012,4;-36,2;0;29,6;70;141;1,4;0,0
03/09/2026;21:50:00;1012,5;-36,2;0;29,5;70;141;1,3;0,0
03/09/2026;21:55:00;1012,6;-36,2;0;29,5;70;146;1,4;0,0
03/09/2026;22:00:00;1012,6;-36,2;0;29,5;70;149;1,0;0,0
03/09/2026;22:05:00;1012,7;-36,1;0;29,5;70;155;1,1;0,0
03/09/2026;22:10:00;1012,7;-36,1;0;29,4;70;136;1,7;0,0
03/09/2026;22:15:00;1012,8;-36,1;0;29,4;70;149;1,3;0,0
03/09/2026;22:20:00;1012,8;-36,2;0;29,4;70;163;1,2;0,0
03/09/2026;22:25:00;1012,8;-36,2;0;29,3;70;142;0,9;0,0
03/09/2026;22:30:00;1012,9;-36,2;0;29,3;70;177;0,8;0,0
03/09/2026;22:35:00;1012,9;-36,1;0;29,3;70;175;0,9;0,0
03/09/2026;22:40:00;1012,9;-36,1;0;29,3;70;154;0,7;0,0
03/09/2026;22:45:00;1012,8;-36,1;0;29,3;70;159;0,8;0,0
03/09/2026;22:50:00;1012,8;-36,1;0;29,3;70;173;0,9;0,0
03/09/2026;22:55:00;1012,8;-36,1;0;29,2;71;173;0,7;0,0
